Powrót do katalogu

STARLINK-3891

AktywnyŁącznośćVLEO
NORAD 52650·PAYLOAD·🇺🇸 United States

Wystrzelony May 14, 2022 z Cape Canaveral Space Force Station

Loading…

Następne Przeloty (najbliższe 24 godziny)

TLE

ŚwieżeSource: CelesTrak SupGP

Epoka: Sep 14, 2026, 21:10 UTC

1 52650C 22052BE  26257.88243056 -.00011646  00000+0 -34415-3 0  2573
2 52650  53.1599 109.6577 0001412  79.7298  30.6531 15.34389440    17

Śledź STARLINK-3891 w czasie rzeczywistym z AllMySat

Download on the App Store